Retour au catalogue

SL-16 DEB

ActifLEO
NORAD 22500·DEBRIS·🇷🇺 Russia

Lancé Dec 25, 1992 depuis Baikonur Cosmodrome

Loading…

Prochains Passages (prochaines 24 heures)

TLE

FraisSource: Space-Track

Époque: Sep 14, 2026, 06:00 UTC

1 22500U 92093GK  26257.25054799  .00000615  00000-0  25697-3 0  9999
2 22500  70.8469 198.6330 0060725 351.6027   8.4079 14.29197490743120

Suivez SL-16 DEB en temps réel avec AllMySat

Download on the App Store